Wind_Speed
14 14 19 16 15 18 23 17 17 20 20 14 15 7 15 16 18 16 17 14 15 14 18 19 19 21 22 24 25 25 26 28 30 31 30 30 30 29 27 28 29 30 30 28
11 9 16 13 13 18 17 12 13 9 19 18 12 16 3 14 20 23 21 18 15 15 16 19 20 20 22 24 25 27 28 29 30 31 33 33 32 30 28 29 28 29 30 30
10 9 6 20 9 18 14 17 11 21 13 22 21 15 8 15 15 19 22 21 18 16 15 17 20 20 22 24 28 28 30 30 31 32 32 33 33 32 31 29 29 29 29 30
16 12 10 19 18 23 11 19 24 20 16 22 13 16 21 7 14 20 12 18 22 20 17 19 19 23 24 24 27 29 30 31 33 33 33 34 35 34 33 32 31 29 31 30
13 3 9 14 20 13 12 12 17 22 24 23 14 12 21 20 7 22 25 28 25 23 24 21 21 23 25 26 28 30 32 32 33 35 34 35 35 35 33 33 33 31 31 31
15 8 3 11 13 12 11 19 17 24 21 22 25 24 26 17 30 28 23 30 33 31 28 28 25 25 26 25 26 29 32 34 34 35 35 35 36 36 37 34 34 34 31 32
8 6 7 16 8 12 14 18 23 13 22 22 24 21 30 24 29 24 26 33 27 30 31 31 30 29 28 30 29 30 32 34 34 35 35 35 34 34 35 35 34 33 34 33
9 8 18 19 12 6 19 20 22 20 21 20 24 22 23 25 22 17 16 24 25 31 35 34 33 29 28 28 30 33 33 35 36 35 35 35 35 34 35 35 34 32 31 34
13 8 17 22 13 5 15 19 17 21 20 21 16 24 31 31 39 32 45 29 32 24 33 37 34 28 25 29 32 32 37 39 36 35 33 33 35 36 37 37 37 33 31 33
5 16 21 16 3 8 18 25 25 16 22 29 11 15 22 27 34 44 41 36 23 36 30 34 32 31 32 32 32 37 34 37 37 34 33 33 33 33 34 35 34 33 31 32
9 19 21 21 18 17 17 29 22 22 25 24 24 14 19 29 39 44 48 40 36 47 18 30 29 27 29 32 34 33 35 36 35 34 32 32 34 35 35 35 33 33 31 31
16 24 26 26 20 22 29 30 26 20 17 19 20 10 12 26 36 40 40 46 49 37 27 23 29 26 27 32 34 30 32 37 35 35 33 33 36 39 40 38 35 33 31 29
21 22 22 17 23 24 22 21 29 16 19 23 24 25 27 29 42 50 37 41 37 60 26 7 14 24 30 23 26 31 33 35 36 35 35 38 40 37 38 37 36 31 28 27
22 22 22 17 12 21 19 26 28 19 19 15 22 27 28 36 45 43 41 37 43 40 38 18 31 26 25 25 28 32 34 34 34 35 39 39 41 41 39 37 33 31 28 27
17 17 17 13 12 12 17 24 22 15 25 12 14 29 35 42 46 46 43 37 43 39 30 29 29 26 25 28 29 32 33 36 37 39 39 39 40 39 37 36 34 32 32 33
16 15 17 13 13 15 16 21 20 16 21 21 26 39 37 39 43 36 35 35 32 35 41 41 35 29 30 32 34 35 34 35 36 38 40 38 37 38 37 37 39 35 37 37
12 10 15 9 14 16 12 19 5 18 21 25 30 32 38 39 31 30 33 33 33 34 32 27 30 30 32 35 37 38 38 38 38 39 40 36 40 40 34 33 34 34 36 37
17 17 14 14 16 18 16 26 18 17 25 26 29 28 32 33 32 33 32 33 31 33 33 33 34 35 37 38 40 40 39 37 35 37 38 38 41 39 36 33 33 33 33 40
17 19 22 22 22 22 25 24 30 31 33 35 20 29 26 27 29 28 30 29 29 31 33 34 35 37 39 41 43 42 40 37 37 37 36 37 41 41 39 35 30 33 37 39
18 28 24 25 30 30 28 31 34 38 34 26 24 17 20 21 27 28 28 30 32 32 32 33 36 36 39 43 45 44 42 38 37 35 34 35 35 38 35 36 36 38 43 41
22 25 27 28 32 25 30 29 35 37 38 37 30 25 23 22 25 31 29 28 28 29 31 34 37 36 40 44 43 39 38 39 35 39 36 34 37 32 31 35 37 32 32 35
27 30 34 34 37 36 32 34 30 34 35 38 31 28 23 25 29 30 29 23 24 26 30 36 39 34 40 42 39 33 39 28 29 32 34 33 30 30 31 28 29 35 35 37
31 31 34 42 39 41 43 46 41 38 38 33 11 18 21 26 30 28 30 31 34 39 37 40 36 31 37 37 38 38 33 39 34 34 33 31 29 29 30 34 34 35 38 41
30 39 38 39 27 32 37 44 34 35 32 11 13 15 20 26 27 27 32 33 38 38 37 39 32 33 35 37 39 34 33 38 32 25 26 27 28 30 30 35 38 41 44 45
38 39 35 29 42 40 39 34 34 36 31 29 17 22 27 29 31 28 37 37 35 36 38 38 38 37 36 39 36 38 35 28 24 27 29 30 31 33 34 37 39 42 45 47
39 39 39 40 40 44 48 47 41 27 33 33 36 27 30 32 31 34 36 32 33 34 36 36 37 34 37 36 33 28 26 28 28 28 29 30 31 35 36 39 40 42 46 46
Wind_Direction
27 10 46 21 15 328 5 332 6 342 346 330 329 64 32 4 353 357 357 354 3 348 346 357 3 6 5 0 357 351 351 351 353 351 348 347 345 341 338 334 335 336 333 329
67 2 16 323 332 319 289 310 342 4 339 314 330 324 332 21 2 350 344 332 349 350 349 352 355 4 0 356 350 350 349 350 350 349 348 347 345 342 341 336 334 334 335 330
94 72 345 311 285 290 2 345 306 331 304 297 318 288 309 23 6 357 330 331 343 353 344 344 347 355 351 352 349 347 345 345 345 344 344 344 344 341 340 338 337 336 334 333
106 68 325 298 303 308 6 325 327 310 349 341 278 311 308 1 356 339 335 341 341 344 347 341 345 343 345 346 342 342 343 341 339 338 339 340 341 343 341 338 337 335 333 334
130 82 263 267 287 334 336 319 330 328 353 10 1 321 254 236 325 349 356 349 341 341 338 338 341 337 335 339 338 340 338 337 336 336 335 336 337 338 340 339 336 338 333 332
168 177 351 282 297 302 306 313 322 337 347 358 356 353 359 357 349 350 336 343 339 334 335 334 333 328 325 334 338 339 335 334 334 333 332 333 334 336 336 338 338 335 334 331
142 10 329 270 271 286 298 314 332 328 338 339 335 331 330 358 358 317 306 308 334 337 335 333 330 327 330 334 337 336 334 333 333 330 330 331 331 332 333 336 335 333 334 333
169 188 230 260 258 348 313 316 321 313 324 342 320 333 338 353 326 310 331 317 338 337 337 328 329 334 333 330 331 334 335 336 332 329 329 328 329 333 334 335 334 333 331 333
200 241 293 311 277 235 278 284 293 303 326 314 306 298 329 331 321 333 337 348 323 326 327 324 330 338 334 331 332 337 335 342 332 326 330 330 332 334 337 337 335 332 328 329
202 301 295 320 85 294 271 281 278 268 304 316 297 296 325 331 332 334 328 341 347 331 322 319 325 332 337 337 334 337 341 338 333 332 333 330 330 332 333 337 334 329 329 325
270 278 273 282 295 304 290 290 327 337 345 326 323 345 331 331 332 322 332 340 304 324 300 316 339 334 334 334 331 332 335 338 334 332 332 329 330 332 334 334 333 331 330 324
232 252 261 269 273 285 294 313 327 347 357 352 328 311 327 336 322 321 319 315 334 325 301 321 310 321 333 337 333 338 332 333 333 333 336 338 337 336 333 333 328 329 327 325
253 275 282 282 248 270 290 328 307 340 4 344 335 328 328 333 312 317 329 328 316 317 256 231 310 335 342 344 350 345 341 336 337 339 340 337 336 334 331 331 327 329 329 326
265 267 274 281 272 255 277 309 297 307 325 312 327 321 324 308 311 317 324 323 327 345 341 307 340 330 342 339 345 342 338 336 334 335 339 339 338 336 333 334 333 331 328 324
254 261 265 268 263 254 289 286 320 318 308 340 327 306 303 316 319 318 325 327 332 333 339 344 359 5 341 339 343 340 338 335 332 331 334 335 335 339 340 337 333 331 328 323
258 260 261 258 261 246 271 314 309 259 287 295 296 300 306 313 312 328 338 338 340 345 355 353 344 345 342 344 342 336 335 330 328 330 333 334 337 339 334 334 334 329 330 326
294 279 278 285 269 282 259 273 234 239 282 299 303 309 320 317 325 335 335 333 339 344 339 336 335 342 343 342 338 335 335 334 332 329 330 331 333 337 334 334 333 323 328 330
298 298 290 286 275 282 296 278 265 280 276 273 289 298 311 310 325 334 330 338 337 334 335 339 340 338 339 338 334 333 336 333 328 328 330 331 334 332 339 331 326 320 328 336
284 285 286 282 276 276 274 277 284 284 283 305 290 308 298 313 320 324 327 330 330 332 333 333 333 334 333 333 330 332 332 329 325 327 325 328 331 326 333 335 328 323 324 328
288 290 286 292 286 275 271 282 284 287 296 280 313 311 281 297 309 317 323 327 330 327 328 329 329 330 329 328 329 333 331 325 321 329 337 330 333 332 332 336 334 328 328 330
268 284 279 285 292 301 274 283 280 276 279 284 315 306 298 308 309 319 323 318 321 329 334 336 325 324 324 327 333 330 327 315 310 323 332 335 332 333 332 336 334 341 340 335
249 261 270 281 289 287 288 289 274 276 289 293 293 293 301 312 325 323 328 318 313 315 322 336 329 321 324 328 331 332 333 338 335 335 331 332 336 337 336 340 338 335 334 332
268 266 272 280 292 283 291 279 281 288 278 275 250 286 312 321 318 326 330 322 317 315 318 325 325 322 330 328 333 332 330 336 335 334 337 346 349 349 346 339 338 335 330 327
269 269 259 287 273 273 289 276 276 312 288 285 294 295 304 310 315 314 325 312 318 324 327 330 328 327 331 333 335 337 334 333 336 343 352 351 347 344 344 339 336 334 330 330
267 274 276 280 293 287 270 257 289 293 292 297 306 317 319 315 315 314 324 322 318 322 326 328 330 334 335 335 332 329 333 340 345 355 349 348 348 345 342 339 336 334 333 333
278 287 293 295 282 281 299 304 307 312 301 297 307 310 309 314 313 315 313 320 324 325 323 327 328 332 329 330 332 332 337 341 345 349 348 346 345 342 340 340 341 340 339 336
Height
5956 5956 5958 5959 5961 5958 5952 5954 5950 5943 5946 5948 5941 5938 5938 5936 5931 5928 5925 5925 5924 5921 5917 5913 5909 5905 5902 5898 5894 5889 5885 5879 5873 5868 5863 5858 5853 5849 5845 5840 5835 5831 5825 5820
5957 5958 5957 5961 5960 5958 5956 5956 5955 5949 5947 5944 5941 5936 5934 5933 5931 5928 5927 5924 5923 5918 5913 5911 5908 5904 5900 5897 5893 5887 5882 5876 5872 5866 5861 5855 5850 5845 5841 5836 5832 5827 5822 5816
5956 5961 5964 5964 5961 5958 5956 5955 5953 5948 5944 5940 5938 5935 5931 5930 5931 5929 5927 5923 5919 5918 5915 5912 5907 5904 5899 5894 5890 5885 5879 5874 5869 5864 5859 5854 5848 5843 5838 5832 5827 5822 5818 5814
5955 5958 5962 5959 5959 5957 5954 5953 5952 5949 5945 5940 5935 5931 5926 5928 5928 5927 5926 5922 5917 5916 5915 5912 5908 5903 5898 5893 5887 5882 5877 5871 5867 5862 5856 5850 5845 5839 5834 5829 5824 5820 5813 5809
5952 5954 5959 5959 5957 5956 5954 5952 5948 5945 5942 5934 5931 5928 5914 5918 5924 5920 5918 5916 5914 5912 5912 5909 5907 5903 5895 5892 5885 5879 5873 5868 5863 5858 5853 5847 5842 5837 5831 5825 5820 5816 5810 5805
5949 5952 5956 5957 5957 5954 5953 5950 5946 5942 5939 5935 5932 5929 5924 5924 5918 5914 5913 5911 5907 5907 5905 5904 5902 5900 5892 5888 5882 5876 5870 5865 5860 5855 5849 5844 5839 5833 5827 5822 5816 5810 5807 5801
5952 5954 5955 5952 5953 5952 5950 5948 5945 5944 5937 5934 5928 5926 5922 5922 5920 5918 5912 5910 5905 5901 5901 5899 5896 5892 5885 5882 5879 5874 5868 5862 5857 5852 5845 5840 5835 5830 5824 5818 5812 5807 5802 5796
5947 5946 5949 5950 5952 5949 5948 5946 5944 5941 5940 5937 5930 5925 5923 5922 5918 5915 5909 5905 5902 5897 5894 5895 5892 5887 5883 5877 5875 5870 5864 5859 5854 5847 5841 5837 5831 5826 5820 5815 5809 5803 5798 5793
5946 5946 5946 5947 5942 5946 5946 5942 5940 5939 5938 5937 5933 5928 5925 5918 5911 5903 5909 5902 5897 5894 5890 5888 5887 5884 5881 5875 5871 5865 5859 5852 5847 5843 5837 5832 5826 5819 5815 5809 5803 5799 5794 5788
5946 5945 5946 5946 5946 5946 5943 5941 5939 5938 5935 5930 5931 5924 5921 5920 5917 5908 5907 5904 5895 5890 5884 5882 5885 5879 5875 5872 5866 5859 5853 5848 5844 5838 5833 5828 5823 5818 5812 5806 5800 5795 5789 5784
5943 5945 5944 5942 5941 5938 5940 5934 5935 5934 5932 5925 5923 5925 5915 5913 5914 5908 5902 5902 5893 5888 5864 5871 5877 5877 5873 5868 5863 5855 5849 5845 5841 5836 5830 5824 5818 5812 5807 5801 5796 5790 5785 5780
5939 5940 5941 5940 5939 5937 5936 5935 5932 5932 5930 5924 5920 5921 5912 5914 5911 5906 5905 5895 5894 5883 5873 5880 5878 5872 5869 5862 5856 5851 5848 5843 5839 5833 5827 5821 5814 5808 5802 5796 5790 5784 5780 5775
5937 5937 5937 5939 5939 5936 5935 5935 5932 5930 5926 5923 5922 5917 5913 5907 5905 5903 5902 5898 5889 5880 5852 5859 5866 5868 5866 5858 5854 5849 5844 5838 5832 5826 5821 5816 5809 5803 5797 5790 5786 5779 5774 5770
5933 5934 5934 5935 5936 5934 5934 5930 5927 5923 5924 5920 5919 5914 5909 5906 5904 5900 5898 5891 5887 5878 5872 5863 5868 5856 5860 5856 5850 5844 5839 5833 5828 5823 5817 5812 5805 5798 5792 5786 5781 5775 5769 5764
5929 5930 5931 5931 5931 5931 5929 5928 5927 5922 5920 5915 5917 5911 5908 5904 5900 5894 5891 5884 5874 5870 5867 5861 5855 5853 5856 5853 5846 5841 5835 5829 5824 5819 5813 5807 5800 5793 5787 5782 5776 5771 5766 5760
5925 5927 5926 5928 5928 5926 5927 5927 5926 5923 5919 5919 5918 5912 5906 5902 5897 5892 5886 5880 5874 5864 5852 5846 5855 5856 5852 5847 5841 5835 5831 5826 5821 5815 5809 5802 5796 5790 5784 5778 5774 5768 5761 5754
5923 5924 5923 5926 5924 5923 5923 5918 5921 5919 5918 5914 5912 5906 5900 5898 5892 5888 5885 5880 5873 5866 5866 5862 5858 5852 5846 5840 5836 5832 5828 5822 5816 5811 5805 5799 5793 5786 5778 5772 5767 5762 5756 5750
5919 5919 5920 5921 5921 5919 5919 5914 5912 5912 5910 5909 5908 5904 5900 5895 5889 5884 5882 5875 5871 5866 5861 5856 5851 5846 5842 5837 5832 5827 5823 5818 5812 5806 5800 5794 5788 5782 5776 5768 5761 5756 5750 5744
5917 5915 5915 5914 5914 5915 5912 5909 5908 5907 5906 5904 5902 5901 5896 5891 5888 5886 5881 5877 5872 5866 5860 5854 5849 5844 5839 5834 5827 5823 5817 5812 5806 5800 5795 5788 5782 5777 5770 5762 5756 5750 5745 5739
5911 5909 5911 5909 5906 5904 5905 5905 5903 5899 5898 5901 5898 5895 5892 5891 5885 5882 5879 5872 5868 5862 5857 5852 5847 5842 5835 5829 5824 5818 5812 5806 5800 5795 5788 5782 5776 5771 5764 5756 5749 5743 5737 5731
5904 5903 5902 5902 5900 5899 5900 5898 5898 5896 5894 5891 5891 5893 5886 5884 5882 5876 5873 5870 5865 5858 5853 5848 5842 5837 5831 5825 5820 5813 5805 5798 5793 5790 5782 5776 5770 5764 5758 5752 5746 5740 5735 5729
5900 5899 5899 5897 5897 5897 5895 5890 5889 5886 5878 5879 5884 5883 5879 5876 5872 5869 5864 5861 5859 5855 5849 5843 5835 5830 5825 5819 5814 5806 5800 5792 5788 5784 5779 5772 5764 5759 5754 5748 5743 5736 5729 5722
5895 5895 5893 5891 5891 5890 5884 5878 5879 5880 5876 5858 5856 5871 5872 5870 5865 5862 5858 5855 5851 5846 5841 5834 5828 5823 5819 5814 5809 5800 5795 5791 5785 5778 5772 5765 5759 5755 5748 5742 5737 5731 5724 5716
5889 5884 5884 5883 5893 5879 5876 5873 5875 5873 5863 5852 5870 5867 5866 5864 5862 5860 5856 5850 5845 5839 5831 5826 5821 5816 5811 5806 5800 5794 5789 5786 5779 5774 5767 5762 5758 5752 5746 5739 5732 5724 5715 5708
5876 5878 5881 5880 5871 5869 5866 5864 5867 5867 5869 5866 5866 5859 5858 5858 5856 5853 5849 5844 5838 5832 5825 5820 5814 5809 5805 5800 5794 5789 5784 5781 5775 5768 5763 5759 5752 5747 5742 5735 5727 5719 5710 5701
5871 5870 5870 5869 5864 5862 5859 5857 5852 5854 5859 5856 5856 5852 5852 5852 5850 5846 5844 5838 5832 5826 5821 5815 5811 5806 5801 5796 5791 5787 5782 5778 5771 5766 5760 5755 5750 5744 5737 5730 5723 5713 5705 5696